sat.trackr.live / text

‹ back to catalog

SYRACUSE 4B

NORAD 57214 · 2023-093B

PAYLOAD ACTIVE UNKNOWN

§ Identity

Operator
Country
FR
Launch date
2023-07-05
Launch site
FRGUI
Launch vehicle
Mass (kg)
RCS (m²)

Purposes: comms

External: N2YO · Heavens-Above · Gunter

§ Orbital elements

Epoch: 2026-05-24T20:01:38.676288Z

Period
1,436.12 min
Inclination
0.0130°
Eccentricity
0.0000198
Mean motion
1.00270398 rev/d
Perigee alt
35,786.1 km
Apogee alt
35,787.8 km
Semi-major
42,165.1 km
B*
0.0000e+0
RAAN
323.1168°
Arg perigee
135.1061°
Mean anomaly
78.1441°
Rev number
673

§ Raw data

SYRACUSE 4B1 57214U 23093B   26144.83447542  .00000000  00000+0  00000+0 0  99982 57214   0.0130 323.1168 0000198 135.1061  78.1441  1.00270398  6735

JSON: /api/v1/satellites/57214 · /tle

For live sub-satellite position, see the globe view (requires WebGL).

§ Visibility from observer

Set your observer location to see the next 7 days of passes ≥ 10°. The values pass through the URL so the page stays shareable.

No JS? Fill the form by hand. The geolocation button needs JavaScript.